Location: The Saddle
(36.8333°N, 80.3417°W)
Time: 04:43:52
(UTC-04:00)

Vanguard 3 - Pass Details

Date: 27 February 2024
Orbit: 510 x 3234 km, 33.3° (Epoch: 24 April)

Event Time Altitude Azimuth Distance (km) Brightness Sun altitude
Rises 22:08:40 0° 261° (W) 6,943 12.4 -46.3°
Reaches altitude 10° 22:13:05 10° 261° (W) 6,069 11.9 -47.1°
Enters shadow 22:30:30 71° 235° (SW) 3,238 9.8 -49.9°
